Regional Weather Roundup
Issued by NWS

Home | Current Version | Previous Version | Graphics & Text | Print | Product List | Glossary On
Versions: 1 2 3 4 5 6 7 8 9 10 11 12 13 14 15 16 17 18 19 20 21 22 23 24 25 26 27 28 29 30 31 32 33 34 35 36 37 38 39 40 41 42 43 44 45 46 47 48 49 50
377
ASUS44 KJAN 221103
RWRMS

MISSISSIPPI HOURLY WEATHER ROUNDUP
NATIONAL WEATHER SERVICE JACKSON MS
600 AM CDT WED OCT 22 2014

NOTE: "FAIR: INDICATES FEW OR NO CLOUDS BELOW 12,000 FEET WITH NO
SIGNIFICANT WEATHER AND/OR OBSTRUCTIONS TO VISIBILITY.

MSZ001>002-007>008-010>013-018>021-025>028-034>036-221200-
NORTHWEST MISSISSIPPI

CITY           SKY/WX    TMP DP  RH WIND       PRES   REMARKS
CLARKSDALE     FAIR      50  48  93 N7        30.17R
CLEVELAND      FAIR      52  50  92 NE8       30.12R
GREENWOOD      CLEAR     53  48  83 E9        30.12R
GREENVILLE     CLEAR     51  47  86 CALM      30.12R
GRENADA          N/A    N/A N/A N/A MISG        N/A
OLIVE BRANCH   CLEAR     48  48 100 NE5       30.18S
OXFORD         FAIR      46  45  93 CALM      30.18R
TUNICA         SUNNY     46  45  93 N6        30.18R
$$

MSZ003>006-009-014>017-022>024-029>033-037>039-221200-
NORTHEAST MISSISSIPPI

CITY           SKY/WX    TMP DP  RH WIND       PRES   REMARKS
COLUMBUS AFB   CLEAR     48  47  97 N2        30.13R
CORINTH        FAIR      43  43 100 CALM      30.17R
GOLDN TRIANGLE CLEAR     46  41  81 N7        30.12R
STARKVILLE     FAIR      48  46  93 CALM      30.13R
TUPELO         CLEAR     46  43  89 NE6       30.16R
$$

MSZ040-058-221200-
CENTRAL MISSISSIPPI

CITY           SKY/WX    TMP DP  RH WIND       PRES   REMARKS
JACKSON INTL   CLEAR     49  48  97 NE5       30.10R FOG
JACKSON HAWKNS CLEAR     52  50  93 CALM      30.10R
MERIDIAN KEY   CLEAR     48  47  96 N5        30.10R
MERIDIAN NAS   CLEAR     47  45  93 N5        30.10R
RAYMOND        FOG       46  43  87 MISG      30.10R VSB<1/4
VICKSBURG      PTCLDY    49  47  93 CALM      30.11R
$$

MSZ059>079-221200-
SOUTH MISSISSIPPI

CITY           SKY/WX    TMP DP  RH WIND       PRES   REMARKS
BROOKHAVEN     FAIR      54  54 100 CALM      30.10R
HATTIESBURG    CLEAR     51  50  96 CALM      30.08R
MCCOMB         CLEAR     59  52  77 NE3       30.08R
NATCHEZ        CLEAR     54  50  87 CALM      30.10R
PINE BELT      CLEAR     54  48  82 N6        30.09R
$$

MSZ080>082-221200-
COASTAL MISSISSIPPI

CITY           SKY/WX    TMP DP  RH WIND       PRES   REMARKS
BILOXI         CLEAR     59  54  84 NE5       30.05R
PASCAGOULA     CLEAR     52  51  97 N5        30.04R
GULFPORT       PTCLDY    59  53  80 N6        30.04R
$$



USA.gov is the U.S. government's official web portal to all federal, state and local government web resources and services.